Location: Peebles
(55.6412°N, 3.1714°W)
Time: 23:20:38
(UTC+00:00)

FENGYUN 1C DEB - Pass Details

Date: 05 February 2023
Orbit: 707 x 862 km, 98.5° (Epoch: 07 November)

Event Time Altitude Azimuth Distance (km) Brightness Sun altitude
Rises 18:32:13 0° 141° (SE) 3,390 ? -13.8°
Reaches altitude 10° 18:34:39 10° 135° (SE) 2,468 ? -14.1°
Maximum altitude 18:39:53 47° 64° (ENE) 1,115 ? -14.9°
Drops below altitude 10° 18:45:10 10° 352° (N) 2,485 ? -15.6°
Sets 18:47:36 0° 347° (NNW) 3,416 ? -15.9°
